Chillicothe, MO

11:49 PM CST on December 10, 2019 (GMT -0600)
Chillicothe

Weather History for KCDJ - October, 2019

Change the Weather History Date:

Thursday, October 31, 2019

  Actual Average (KIRK) Record (KIRK)
Temperature  
Mean Temperature 34 °F -  
Max Temperature 41 °F 61 °F 87 °F (1950)
Min Temperature 26 °F 43 °F 19 °F (1993)
Degree Days  
Heating Degree Days 32    
Moisture  
Dew Point 23 °F    
Average Humidity 70    
Maximum Humidity 92    
Minimum Humidity 45    
Precipitation  
Precipitation 0.05 in - - ()
Sea Level Pressure  
Sea Level Pressure 30.25 in    
Wind  
Wind Speed 6 mph (West)    
Max Wind Speed 12 mph    
Max Gust Speed 24 mph    
Averages and records for this station are not official NWS values.
T = Trace of Precipitation, MM = Missing Value Source: NWS Daily Summary

Daily Weather History Graph

Daily Weather History Graph

Search for Another Location

Airport or City:

Astronomy

Oct. 31, 2019 Rise Set
Actual Time 7:41 AM CDT 6:13 PM CDT
Civil Twilight 7:13 AM CDT 6:41 PM CDT
Nautical Twilight 6:41 AM CDT 7:13 PM CDT
Astronomical Twilight 6:10 AM CDT 7:44 PM CDT
Moon 11:30 AM CDT (10/31) 9:10 PM CDT (10/31)
Length of Visible Light 11h 27m
Length of Day
10h 31m
Waxing Crescent, 16% of the Moon is Illuminated
Oct 31
Waxing Crescent
Nov 4
First Quarter
Nov 12
Full
Nov 19
Last Quarter
Nov 26
New

Hourly Weather History & Observations

Time (CDT) Temp. Windchill Dew Point Humidity Pressure Visibility Wind Dir Wind Speed Gust Speed Precip Events Conditions
12:52 AM 28.9 °F 23.9 °F 27.0 °F 92% 30.23 in - Variable 4.6 mph - 0.01 in   Unknown
1:52 AM 28.9 °F 20.4 °F 27.0 °F 92% 30.22 in - NW 9.2 mph 16.1 mph 0.02 in   Unknown
3:52 AM 28.0 °F 20.8 °F 25.0 °F 88% 30.22 in - Variable 6.9 mph 16.1 mph N/A   Unknown
4:52 AM 28.0 °F 20.8 °F 26.1 °F 92% 30.22 in - NW 6.9 mph - N/A   Unknown
5:52 AM 28.0 °F - 25.0 °F 88% 30.22 in - North - - N/A   Unknown
6:52 AM 27.0 °F 18.7 °F 24.1 °F 89% 30.23 in - NW 8.1 mph - N/A   Unknown
7:52 AM 26.1 °F 21.9 °F 24.1 °F 92% 30.23 in - Variable 3.5 mph - N/A   Unknown
8:52 AM 28.0 °F 20.0 °F 21.0 °F 75% 30.25 in - WNW 8.1 mph - N/A   Unknown
9:52 AM 30.0 °F 22.4 °F 21.0 °F 69% 30.26 in - WNW 8.1 mph - 0.02 in   Unknown
10:52 AM 33.1 °F 26.1 °F 21.9 °F 64% 30.27 in - NW 8.1 mph 17.3 mph N/A   Unknown
11:52 AM 35.1 °F 27.9 °F 21.0 °F 57% 30.27 in - WNW 9.2 mph 18.4 mph N/A   Unknown
12:52 PM 37.0 °F 29.3 °F 21.0 °F 52% 30.27 in - West 11.5 mph 20.7 mph N/A   Unknown
1:52 PM 39.0 °F 33.4 °F 21.0 °F 49% 30.25 in - WNW 8.1 mph 24.2 mph N/A   Unknown
2:52 PM 39.9 °F 34.5 °F 21.0 °F 47% 30.24 in - WNW 8.1 mph - N/A   Unknown
3:52 PM 41.0 °F 36.4 °F 21.9 °F 47% 30.25 in - West 6.9 mph 18.4 mph N/A   Unknown
4:52 PM 41.0 °F 36.4 °F 21.0 °F 45% 30.26 in - Variable 6.9 mph - N/A   Unknown
5:52 PM 39.0 °F 34.8 °F 21.0 °F 49% 30.26 in - Variable 5.8 mph - N/A   Unknown
6:52 PM 36.0 °F - 21.9 °F 57% 30.27 in - Calm Calm - N/A   Unknown
7:52 PM 32.0 °F - 24.1 °F 73% 30.29 in - Calm Calm - N/A   Unknown
8:52 PM 30.9 °F - 23.0 °F 72% 30.29 in - Calm Calm - N/A   Unknown
9:52 PM 30.0 °F 26.5 °F 23.0 °F 75% 30.29 in - SSW 3.5 mph - N/A   Unknown
10:52 PM 30.0 °F 26.5 °F 23.0 °F 75% 30.27 in - SSW 3.5 mph - N/A   Unknown
11:52 PM 28.9 °F 25.2 °F 23.0 °F 78% 30.27 in - SSW 3.5 mph - N/A   Unknown